This demonstration page uses our WeatherBlox Daily Observations layout. Learn more.

Left ArrowRight Arrow

Hourly Observations for May 16, 2016

Temp ( °F °C ) Dew Point ( °F °C ) Humidity (%) Winds ( mph kmh ) Pressure ( in mb ) Visibility ( mi km ) Precip ( " mm )
12:54 am 00:54 Cloudy 52 11.1 42 5.6 69 69 SSW 3 6 30.14 1021 10 16 0.00 0.00
1:54 am 01:54 Cloudy 51 10.6 43 6.1 74 74 Calm 30.14 1021 10 16 0.00 0.00
2:54 am 02:54 Cloudy 51 10.6 43 6.1 74 74 S 7 11 30.12 1020 10 16 0.00 0.00
3:54 am 03:54 Cloudy 51 10.6 43 6.1 74 74 S 5 7 30.11 1020 10 16 0.00 0.00
4:54 am 04:54 Cloudy 51 10.6 43 6.1 74 74 S 6 9 30.10 1019 10 16 0.00 0.00
5:54 am 05:54 Cloudy 50 10 44 6.7 80 80 SSE 6 9 30.10 1019 10 16 0.00 0.00
6:54 am 06:54 Cloudy 51 10.6 44 6.7 77 77 SSE 7 11 30.10 1019 10 16 0.00 0.00
7:24 am 07:24 Cloudy 52 11 45 7 77 77 SSE 7 11 30.15 1021 10 16 0.00 0.00
7:54 am 07:54 Cloudy 51 10.6 44 6.7 77 77 SE 7 11 30.11 1020 10 16 0.00 0.00
8:54 am 08:54 Cloudy 51 10.6 46 7.8 83 83 SE 10 17 30.11 1020 9 14 0.01 0.25
9:19 am 09:19 Cloudy with Light Rain 51 10.6 46 7.8 83 83 ESE 8 13 30.15 1021 9 14 0.00 0.03
9:54 am 09:54 Cloudy with Light Rain 51 10.6 47 8.3 86 86 ESE 6 9 30.11 1020 5 8 0.00 0.03
10:54 am 10:54 Cloudy with Light Rain 51 10.6 48 8.9 89 89 E 6 9 30.12 1020 3 5 0.06 1.52
11:07 am 11:07 Cloudy with Rain 51 10.6 48 8.9 89 89 E 6 9 30.15 1021 3 5 0.02 0.51
11:11 am 11:11 Cloudy with Rain 51 10.6 49 9.4 92 92 E 8 13 30.15 1021 3 5 0.03 0.76
11:20 am 11:20 Cloudy with Light Rain 52 11 48 9 88 88 ENE 7 11 30.15 1021 3 5 0.00 0.00
11:54 am 11:54 Cloudy with Light Rain 51 10.6 49 9.4 92 92 E 9 15 30.12 1020 3 5 0.08 2.03
12:03 pm 12:03 Cloudy with Light Rain 52 11.1 50 10 93 93 ENE 9 15 30.15 1021 4 6 0.00 0.03
12:24 pm 12:24 Cloudy with Light Rain 52 11 48 9 88 88 ENE 9 15 30.15 1021 5 8 0.00 0.00
12:46 pm 12:46 Cloudy with Light Rain 52 11 48 9 88 88 ENE 10 17 30.15 1021 4 6 0.00 0.00
12:54 pm 12:54 Cloudy with Light Rain 52 11.1 49 9.4 89 89 ENE 9 15 30.11 1020 3 5 0.04 1.02
1:35 pm 13:35 Cloudy with Light Rain 52 11.1 50 10 93 93 ENE 12 19 30.15 1021 5 8 0.04 1.02
1:54 pm 13:54 Cloudy with Light Rain 52 11.1 49 9.4 89 89 ENE 12 19 30.11 1020 5 8 0.05 1.27
2:01 pm 14:01 Cloudy with Light Rain 52 11 48 9 88 88 ENE 12 19 30.15 1021 4 6 0.00 0.00
2:54 pm 14:54 Cloudy with Light Rain 53 11.7 49 9.4 86 86 ENE 14 22 30.11 1020 4 6 0.03 0.76
3:04 pm 15:04 Cloudy with Light Rain 54 12 48 9 82 82 ENE 15 24 30.12 1020 4 6 0.00 0.00
3:13 pm 15:13 Cloudy with Light Rain 53 11.7 50 10 89 89 ENE 13 20 30.09 1019 5 8 0.01 0.25
3:54 pm 15:54 Cloudy with Light Rain 53 11.7 48 8.9 83 83 ENE 17 28 30.09 1019 10 16 0.01 0.25
4:06 pm 16:06 Cloudy with Light Rain 54 12 48 9 82 82 ENE 16 26 30.09 1019 10 16 0.00 0.00
4:36 pm 16:36 Cloudy 54 12 48 9 82 82 ENE 13 20 30.09 1019 10 16 0.00 0.00
4:54 pm 16:54 Cloudy 53 11.7 49 9.4 86 86 E 13 20 30.08 1019 10 16 0.00 0.03
5:03 pm 17:03 Cloudy 54 12 48 9 82 82 ENE 16 26 30.09 1019 10 16 0.00 0.00
5:54 pm 17:54 Cloudy 54 12.2 48 8.9 80 80 E 10 17 30.09 1019 10 16 0.00 0.00
6:15 pm 18:15 Cloudy 54 12.2 48 8.9 80 80 E 12 19 30.09 1019 10 16 0.00 0.00
6:54 pm 18:54 Cloudy 54 12.2 48 8.9 80 80 ENE 12 19 30.10 1019 10 16 0.00 0.00
7:03 pm 19:03 Cloudy 54 12 48 9 82 82 E 12 19 30.09 1019 10 16 0.00 0.00
7:54 pm 19:54 Cloudy 54 12.2 48 8.9 80 80 ENE 10 17 30.11 1020 10 16 0.00 0.00
8:10 pm 20:10 Cloudy 54 12 48 9 82 82 ENE 10 17 30.12 1020 10 16 0.00 0.00
8:54 pm 20:54 Cloudy 53 11.7 48 8.9 83 83 ENE 9 15 30.11 1020 10 16 0.00 0.00
9:54 pm 21:54 Clear 51 10.6 48 8.9 89 89 ENE 7 11 30.12 1020 10 16 0.00 0.00
10:54 pm 22:54 Clear 49 9.4 46 7.8 90 90 NE 7 11 30.16 1021 10 16 0.00 0.00
11:54 pm 23:54 Mostly Cloudy 49 9.4 47 8.3 93 93 N 9 15 30.17 1022 10 16 0.00 0.00

Powered by AerisWeather